Regional Weather Roundup
Issued by NWS

Home | Current Version | Previous Version | Graphics & Text | Print | Product List | Glossary On
Versions: 1 2 3 4 5 6 7 8 9 10 11 12 13 14 15 16 17 18 19 20 21 22 23 24 25 26 27 28 29 30 31 32 33 34 35 36 37 38 39 40 41 42 43 44 45 46 47 48 49 50
000
ASUS43 KMPX 161810
RWRMN
WEATHER ROUNDUP FOR MINNESOTA
NATIONAL WEATHER SERVICE TWIN CITIES/CHANHASSEN MN
1200 PM CST SAT DEC 16 2017


NOTE: "FAIR" INDICATES FEW OR NO CLOUDS BELOW 12,000 FEET WITH NO
SIGNIFICANT WEATHER AND/OR OBSTRUCTIONS TO VISIBILITY. N/A MEANS
CURRENT SKY AND/OR WEATHER CONDITIONS ARE NOT AVAILABLE.

MNZ060>063-068>070-161900-
   Twin Cities Metro

CITY           SKY/WX    TMP DP  RH WIND       PRES   REMARKS
TWIN CITIES    CLOUDY    28  25  88 SE3       29.89R
6HR MIN TEMP:  25; 6HR MAX TEMP:  28;

ST PAUL        CLOUDY    28  23  81 NE6       29.91R WCI  22
CRYSTAL        CLOUDY    27  21  78 VRB3      29.88R
BLAINE         PTSUNNY   28  23  80 E8        29.89R WCI  20
LAKEVILLE      CLOUDY    27  27 100 NE6       29.87R FOG     WCI  20
EDEN PRAIRIE   CLOUDY    29  24  82 E7        29.87R HAZE    WCI  22
6HR MIN TEMP:  26; 6HR MAX TEMP:  29;

SOUTH ST PAUL  PTSUNNY   28  24  85 E5        29.89R WCI  23
LAKE ELMO      CLOUDY    28  23  80 NE6       29.90R WCI  22
$$
MNZ001>005-007-008-013>017-022>024-027-028-161900-
   Northwest Minnesota

CITY           SKY/WX    TMP DP  RH WIND       PRES   REMARKS
BEMIDJI        CLOUDY    19  15  84 SE7       29.88S WCI  10
HALLOCK        CLOUDY    18  16  93 SE7       29.89S WCI   8
ROSEAU         LGT SNOW  12   9  85 E6        29.90R WCI   3
WARROAD        LGT SNOW  10   7  85 E7        29.91R VSB 1   WCI   0
THIEF RVR FALL CLOUDY    22  18  85 SE5       29.88S WCI  16
CROOKSTON      CLOUDY    27  23  86 SW6       29.89F WCI  20
FOSSTON        CLOUDY    23  18  80 S7        29.87S WCI  15
DETROIT LAKES  CLOUDY    27  23  86 SE5       29.88S WCI  21
MOORHEAD       CLOUDY    27  23  86 CALM      29.90F
PARK RAPIDS    CLOUDY    20  17  88 SE5       29.88R WCI  13
MAHNOMEN       CLOUDY    25  22  88 S9        29.87S WCI  15
$$
MNZ006-009>011-018-025>026-161900-
   North Central Minnesota

CITY           SKY/WX    TMP DP  RH WIND       PRES   REMARKS
BAUDETTE       CLOUDY     7   3  84 E12       29.90F WCI  -8
FLAG ISLAND    CLOUDY     7   1  78 E8        29.91S WCI  -6
INTL FALLS     LGT SNOW   5  -1  76 E10       29.94S VSB 3/4 WCI -10
6HR MIN TEMP:   0; 6HR MAX TEMP:   5; 6HR PCP:  0.02;

WASKISH        CLOUDY    14  12  92 E5        29.90R WCI   6
BIG FORK       FLURRIES  14  10  85 CALM      29.90S
LONGVILLE      CLOUDY    19  12  73 SE3       29.90R
GRAND RAPIDS   FLURRIES  19  15  84 VRB6      29.92S WCI  11
CRANE LAKE     LGT SNOW   7   3  85 CALM      29.99S
ORR            LGT SNOW  10   5  79 CALM      29.90S
COOK           LGT SNOW  10   7  85 NE3       29.93S
WALKER         CLOUDY    19  14  78 SE3       29.89R
$$
MNZ012-019>021-037-161900-
   Northeast Minnesota

CITY           SKY/WX    TMP DP  RH WIND       PRES   REMARKS
DULUTH         LGT SNOW  19  13  77 E17       29.91S WCI   4
6HR MIN TEMP:  16; 6HR MAX TEMP:  19; 6HR PCP:  0.01;

ELY            LGT SNOW   7   3  85 N3        29.94S
HIBBING        CLOUDY    19  15  84 SE12      29.91S WCI   7
EVELETH        CLOUDY    20  13  75 E6        29.92F WCI  12
DULUTH HARBOR  CLOUDY    23  16  74 E14       29.98R WCI  11
TWO HARBORS    CLOUDY    27  19  74 E9        29.94S HAZE    WCI  17
SILVER BAY     LGT SNOW  23  18  80 E10       29.95S WCI  12
GRAND MARAIS     N/A     17  10  74 NE10      30.05R WCI   5
G MARAIS ARPRT FLURRIES   7   1  78 NE6       29.95S WCI  -3
$$
MNZ029>031-032-039>041-046>048-054>057-064-161900-
   West Central Minnesota

CITY           SKY/WX    TMP DP  RH WIND       PRES   REMARKS
FERGUS FALLS   PTSUNNY   27  23  86 CALM      29.92S
WHEATON        CLOUDY    30  27  86 CALM      29.92R
MORRIS         PTSUNNY   28  27  93 CALM      29.88R
ALEXANDRIA     CLOUDY    26  23  88 CALM      29.88S FOG
ELBOW LAKE     CLOUDY    27  24  89 SE3       29.89S FOG
WADENA         CLOUDY    21  19  93 CALM      29.88R
GLENWOOD       PTSUNNY   25  23  93 NE5       29.88R FOG     WCI  19
APPLETON         N/A     32  27  80 CALM      29.89R
BENSON         CLOUDY    30  25  80 CALM      29.90S
ORTONVILLE     CLOUDY    34  30  86 N12       29.88S WCI  25
MADISON        CLOUDY    39  34  81 N14       29.88R
WILLMAR        FAIR      32  27  80 CALM      29.89R
$$
MNZ033>034-036-042>043-049>051-058-059-161900-
   Central Minnesota

CITY           SKY/WX    TMP DP  RH WIND       PRES   REMARKS
ST CLOUD       CLOUDY    25  20  81 N5        29.90R WCI  19
6HR MIN TEMP:  21; 6HR MAX TEMP:  25;

SAUK CENTRE    CLOUDY    24  22  93 CALM      29.89S FOG
PAYNESVILLE    CLOUDY    27  25  93 N3        29.89S
AITKIN         CLOUDY    21  12  68 NE5       29.89S WCI  15
PINE RIVER     CLOUDY    19  12  73 E5        29.93R WCI  13
BRAINERD       CLOUDY    24  17  74 NE5       29.90R WCI  18
STAPLES        CLOUDY    21  18  86 CALM      29.89R
LITTLE FALLS   CLOUDY    25  19  80 NW3       29.91R
LITCHFIELD     CLOUDY    28  27  93 NE5       29.89R WCI  23
BUFFALO        CLOUDY    27  23  84 NE3       29.90R
MAPLE LAKE     CLOUDY    28  25  87 N5        29.90R WCI  23
HUTCHINSON     PTSUNNY   30  27  88 N3        29.88R
$$
MNZ037-044-045-052-053-161900-
   East Central Minnesota

CITY           SKY/WX    TMP DP  RH WIND       PRES   REMARKS
PRINCETON      CLOUDY    27  19  74 NE6       29.89R WCI  20
MORA           CLOUDY    25  18  74 E5        29.91S WCI  19
CAMBRIDGE      CLOUDY    27  18  69 NE6       29.90R WCI  20
RUSH CITY      CLOUDY    25  18  73 E5        29.90F WCI  19
MOOSE LAKE     CLOUDY    23  12  63 NE3       29.89R
HINCKLEY       CLOUDY    23  18  80 E8        29.91R WCI  14
CLOQUET        CLOUDY    19   9  63 E9        29.91R WCI   9
MCGREGOR       CLOUDY    23  12  63 NE3       29.92R
$$
MNZ071>073-080-081-089-090-097-098-161900-
   Southwest Minnesota

CITY           SKY/WX    TMP DP  RH WIND       PRES   REMARKS
MONTEVIDEO     CLOUDY    37  32  81 N5        29.88R
GRANITE FALLS  MOSUNNY   37  31  81 NW6       29.89S
CANBY          CLOUDY    40  32  72 NW9       29.88S
MARSHALL       CLOUDY    39  31  72 NW15      29.86R
REDWOOD FALLS  CLOUDY    35  29  78 N7        29.86S WCI  29
OLIVIA         MOSUNNY   34  30  86 N5        29.86R WCI  30
PIPESTONE      CLOUDY    39  30  70 N12G21    29.84R
WINDOM           N/A     39  25  56 NW14      29.84S
WORTHINGTON    MOSUNNY   42  30  62 N12       29.84R
JACKSON        SUNNY     43  30  61 NW12      29.84R
SLAYTON        CLOUDY    40  31  71 NW12      29.85R
$$
MNZ065>067-074>077-082>085-091>093-161900-
   South Central Minnesota

CITY           SKY/WX    TMP DP  RH WIND       PRES   REMARKS
MANKATO        CLOUDY    33  28  81 N7        29.85S WCI  27
NEW ULM        CLOUDY    32  28  86 N5        29.85S WCI  27
ST JAMES       MOSUNNY   37  30  75 NW10      29.86R
FAIRMONT       CLOUDY    41  30  65 N9        29.84R
GLENCOE        PTSUNNY   31  30  95 N5        29.86S WCI  27
FARIBAULT      SUNNY     34  27  75 CALM      29.86R
OWATONNA       CLOUDY    36  28  75 NE5       29.83S
WASECA         CLOUDY    36  30  80 N7        29.85S
ALBERT LEA     CLOUDY    39  27  60 NW3       29.83R
$$
MNZ078>079-086>088-094>096-161900-
   Southeast Minnesota

CITY           SKY/WX    TMP DP  RH WIND       PRES   REMARKS
ROCHESTER      SUNNY     36  27  69 E6        29.83R
6HR MIN TEMP:  20; 6HR MAX TEMP:  36;

RED WING       CLOUDY    28  21  74 E7        29.88R WCI  21
STANTON        CLOUDY    32  27  83 E7        29.86R WCI  26
DODGE CENTER   SUNNY     36  27  69 E5        29.82S
WINONA         CLOUDY    30  27  86 SE7       29.89S WCI  23
AUSTIN         CLOUDY    36  27  69 CALM      29.83R
PRESTON        CLOUDY    34  25  68 E6        29.83S WCI  29
$$
ABBREVIATIONS USED IN REMARKS
   TC - TEMPERATURES IN CELSIUS
  WCI - WIND CHILL INDEX
   HX - HEAT INDEX
  VSB - VISIBILITY
$$




USA.gov is the U.S. government's official web portal to all federal, state and local government web resources and services.